Location: Newark
(7.0858°N, 171.3717°E)
Time: 15:10:00
(UTC+00:00)

SR - Visible Passes

Search period start: 24 November 2020 00:00
Search period end: 04 December 2020 00:00
Orbit: 579 x 876 km, 66.7° (Epoch: 23 November)

Date Brightness Start Highest point End Pass type
(mag) Time Alt. Az. Time Alt. Az. Time Alt. Az.
24 Nov ? 06:51:00 10° SSW 06:55:14 77° WNW 06:59:27 10° NNE visible
24 Nov ? 17:30:26 10° N 17:35:26 31° ENE 17:40:34 10° SE visible
25 Nov ? 16:43:09 10° NE 16:45:41 13° ENE 16:48:15 10° E visible
26 Nov ? 06:54:08 10° SW 06:57:42 27° WNW 07:01:18 10° N visible
26 Nov ? 17:32:16 10° NNW 17:37:59 68° ENE 17:43:51 10° SSE visible
27 Nov ? 16:43:24 10° N 16:48:17 29° ENE 16:53:17 10° SE visible
28 Nov ? 07:00:01 10° WNW 07:00:15 10° WNW 07:00:29 10° WNW visible
28 Nov ? 15:56:30 10° NE 15:58:31 12° ENE 16:00:34 10° E visible
28 Nov ? 17:35:12 12° NNW 17:40:30 56° WSW 17:46:16 10° S visible
29 Nov ? 16:47:51 29° N 16:50:50 63° ENE 16:56:40 10° SSE visible
30 Nov ? 16:00:29 26° ENE 16:01:08 27° ENE 16:06:00 10° SE visible
30 Nov ? 17:39:57 17° WNW 17:43:00 26° WSW 17:47:47 10° SSW visible
01 Dec ? 16:52:32 55° WNW 16:53:20 61° WSW 16:59:09 10° S visible
02 Dec ? 16:05:04 46° ESE 16:05:04 46° ESE 16:09:28 10° SSE visible
02 Dec ? 17:44:32 11° W 17:45:29 11° WSW 17:47:08 10° SW visible
03 Dec ? 15:17:32 14° ESE 15:17:32 14° ESE 15:18:40 10° ESE visible
03 Dec ? 16:57:00 26° SW 16:57:00 26° SW 17:00:47 10° SSW visible
